Location: Dover
(48.8500°N, 53.9833°W)
Time: 16:45:06
(UTC+00:00)

ATLAS 5 CENTAUR R/B - Pass Details

Date: 14 November 2025
Orbit: 373 x 1089 km, 63.3° (Epoch: 12 December)

Event Time Altitude Azimuth Distance (km) Brightness Sun altitude
Rises 20:52:45 0° 319° (NW) 2,678 5.2 -9.4°
Reaches altitude 10° 20:54:45 10° 321° (NW) 1,879 4.3 -9.7°
Maximum altitude 20:59:00 77° 47° (NE) 685 1.6 -10.4°
Drops below altitude 10° 21:04:19 10° 134° (SE) 2,335 4.2 -11.2°
Sets 21:07:02 0° 136° (SE) 3,389 5.1 -11.6°
